Time,TemperatureF,DewpointF,PressureIn,WindDirection,WindDirectionDegrees,WindSpeedMPH,WindSpeedGustMPH,Humidity,HourlyPrecipIn,Conditions,Clouds,dailyrainin,SoftwareType,DateUTC
2013-07-27 00:00:00,59.0,51.0,30.19,WSW,243,5.0,11.0,75,0.00,,,0.00,,2013-07-27 08:00:00,
2013-07-27 00:43:00,59.0,51.0,30.19,WSW,243,5.0,11.0,75,0.00,,,0.00,,2013-07-27 08:43:00,
2013-07-27 00:53:00,59.0,51.0,30.19,WSW,243,5.0,11.0,75,0.00,,,0.00,,2013-07-27 08:53:00,
2013-07-27 01:00:00,57.0,51.0,30.20,WNW,282,3.0,10.0,79,0.00,,,0.00,,2013-07-27 09:00:00,
2013-07-27 01:44:00,57.0,51.0,30.20,WNW,282,3.0,10.0,79,0.00,,,0.00,,2013-07-27 09:44:00,
2013-07-27 01:52:00,57.0,51.0,30.20,WNW,282,3.0,10.0,79,0.00,,,0.00,,2013-07-27 09:52:00,
2013-07-27 02:00:00,55.0,50.0,30.20,West,260,3.0,6.0,84,0.00,,,0.00,,2013-07-27 10:00:00,
2013-07-27 02:32:00,55.0,50.0,30.20,West,260,3.0,6.0,84,0.00,,,0.00,,2013-07-27 10:32:00,
2013-07-27 02:43:00,55.0,50.0,30.20,West,260,3.0,6.0,84,0.00,,,0.00,,2013-07-27 10:43:00,
2013-07-27 02:52:00,55.0,50.0,30.20,West,260,3.0,6.0,84,0.00,,,0.00,,2013-07-27 10:52:00,
2013-07-27 03:00:00,54.0,50.0,30.20,West,265,2.0,7.0,86,0.00,,,0.00,,2013-07-27 11:00:00,
2013-07-27 03:44:00,54.0,50.0,30.20,West,265,2.0,7.0,86,0.00,,,0.00,,2013-07-27 11:44:00,
2013-07-27 03:52:00,54.0,50.0,30.20,West,265,2.0,7.0,86,0.00,,,0.00,,2013-07-27 11:52:00,
2013-07-27 04:00:00,55.0,51.0,30.20,WNW,283,3.0,7.0,85,0.00,,,0.00,,2013-07-27 12:00:00,
2013-07-27 04:33:00,55.0,51.0,30.20,WNW,283,3.0,7.0,85,0.00,,,0.00,,2013-07-27 12:33:00,
2013-07-27 04:43:00,55.0,51.0,30.20,WNW,283,3.0,7.0,85,0.00,,,0.00,,2013-07-27 12:43:00,
2013-07-27 04:52:00,55.0,51.0,30.20,WNW,283,3.0,7.0,85,0.00,,,0.00,,2013-07-27 12:52:00,
2013-07-27 05:00:00,54.0,51.0,30.21,WSW,240,4.0,8.0,90,0.00,,,0.00,,2013-07-27 13:00:00,
2013-07-27 05:44:00,54.0,51.0,30.21,WSW,240,4.0,8.0,90,0.00,,,0.00,,2013-07-27 13:44:00,
2013-07-27 05:53:00,54.0,51.0,30.21,WSW,240,4.0,8.0,90,0.00,,,0.00,,2013-07-27 13:53:00,
2013-07-27 06:00:00,53.0,50.0,30.21,SW,236,2.0,7.0,91,0.00,,,0.00,,2013-07-27 14:00:00,
2013-07-27 06:44:00,53.0,50.0,30.21,SW,236,2.0,7.0,91,0.00,,,0.00,,2013-07-27 14:44:00,
2013-07-27 06:54:00,53.0,50.0,30.21,SW,236,2.0,7.0,91,0.00,,,0.00,,2013-07-27 14:54:00,
2013-07-27 07:00:00,56.0,52.0,30.21,WNW,283,3.0,7.0,86,0.00,,,0.00,,2013-07-27 15:00:00,
2013-07-27 07:44:00,56.0,52.0,30.21,WNW,283,3.0,7.0,86,0.00,,,0.00,,2013-07-27 15:44:00,
2013-07-27 07:53:00,56.0,52.0,30.21,WNW,283,3.0,7.0,86,0.00,,,0.00,,2013-07-27 15:53:00,
2013-07-27 08:00:00,56.0,52.0,30.23,WNW,284,2.0,6.0,85,0.00,,,0.00,,2013-07-27 16:00:00,
2013-07-27 08:43:00,56.0,52.0,30.23,WNW,284,2.0,6.0,85,0.00,,,0.00,,2013-07-27 16:43:00,
2013-07-27 08:54:00,56.0,52.0,30.23,WNW,284,2.0,6.0,85,0.00,,,0.00,,2013-07-27 16:54:00,
2013-07-27 09:00:00,60.0,53.0,30.23,West,280,2.0,5.0,78,0.00,,,0.00,,2013-07-27 17:00:00,
2013-07-27 09:43:00,60.0,53.0,30.23,West,280,2.0,5.0,78,0.00,,,0.00,,2013-07-27 17:43:00,
2013-07-27 09:53:00,60.0,53.0,30.23,West,280,2.0,5.0,78,0.00,,,0.00,,2013-07-27 17:53:00,
2013-07-27 10:00:00,65.0,54.0,30.24,SW,229,3.0,7.0,67,0.00,,,0.00,,2013-07-27 18:00:00,
2013-07-27 10:43:00,65.0,54.0,30.24,SW,229,3.0,7.0,67,0.00,,,0.00,,2013-07-27 18:43:00,
2013-07-27 10:53:00,65.0,54.0,30.24,SW,229,3.0,7.0,67,0.00,,,0.00,,2013-07-27 18:53:00,
2013-07-27 11:00:00,65.0,53.0,30.25,SW,232,4.0,10.0,64,0.00,,,0.00,,2013-07-27 19:00:00,
2013-07-27 11:43:00,65.0,53.0,30.25,SW,232,4.0,10.0,64,0.00,,,0.00,,2013-07-27 19:43:00,
2013-07-27 11:53:00,65.0,53.0,30.25,SW,232,4.0,10.0,64,0.00,,,0.00,,2013-07-27 19:53:00,
2013-07-27 12:43:00,67.0,55.0,30.25,SW,233,6.0,12.0,66,0.00,,,-99.99,,2013-07-27 20:43:00,
2013-07-27 12:52:00,67.0,55.0,30.25,SW,233,6.0,12.0,66,0.00,,,-99.99,,2013-07-27 20:52:00,
2013-07-27 13:00:00,66.0,53.0,30.25,WSW,242,6.0,16.0,63,0.00,,,0.00,,2013-07-27 21:00:00,
2013-07-27 13:43:00,66.0,53.0,30.25,WSW,242,6.0,16.0,63,0.00,,,0.00,,2013-07-27 21:43:00,
2013-07-27 13:52:00,66.0,53.0,30.25,WSW,242,6.0,16.0,63,0.00,,,0.00,,2013-07-27 21:52:00,
2013-07-27 14:00:00,68.0,54.0,30.25,SW,234,6.0,15.0,61,0.00,,,0.00,,2013-07-27 22:00:00,
2013-07-27 14:33:00,68.0,54.0,30.25,SW,234,6.0,15.0,61,0.00,,,0.00,,2013-07-27 22:33:00,
2013-07-27 14:43:00,68.0,54.0,30.25,SW,234,6.0,15.0,61,0.00,,,0.00,,2013-07-27 22:43:00,
2013-07-27 14:53:00,68.0,54.0,30.25,SW,234,6.0,15.0,61,0.00,,,0.00,,2013-07-27 22:53:00,
2013-07-27 15:00:00,70.0,54.0,30.25,WSW,237,6.0,14.0,57,0.00,,,0.00,,2013-07-27 23:00:00,
2013-07-27 15:44:00,70.0,54.0,30.25,WSW,237,6.0,14.0,57,0.00,,,0.00,,2013-07-27 23:44:00,
2013-07-27 15:53:00,70.0,54.0,30.25,WSW,237,6.0,14.0,57,0.00,,,0.00,,2013-07-27 23:53:00,
2013-07-27 16:00:00,71.0,53.0,30.25,WSW,240,6.0,15.0,53,0.00,,,0.00,,2013-07-28 00:00:00,
2013-07-27 16:32:00,71.0,53.0,30.25,WSW,240,6.0,15.0,53,0.00,,,0.00,,2013-07-28 00:32:00,
2013-07-27 16:44:00,71.0,53.0,30.25,WSW,240,6.0,15.0,53,0.00,,,0.00,,2013-07-28 00:44:00,
2013-07-27 16:53:00,71.0,53.0,30.25,WSW,240,6.0,15.0,53,0.00,,,0.00,,2013-07-28 00:53:00,
2013-07-27 17:00:00,73.0,53.0,30.24,SW,225,5.0,13.0,50,0.00,,,0.00,,2013-07-28 01:00:00,
2013-07-27 17:43:00,73.0,53.0,30.24,SW,225,5.0,13.0,50,0.00,,,0.00,,2013-07-28 01:43:00,
2013-07-27 17:53:00,73.0,53.0,30.24,SW,225,5.0,13.0,50,0.00,,,0.00,,2013-07-28 01:53:00,
2013-07-27 18:00:00,73.0,52.0,30.24,WSW,243,6.0,13.0,48,0.00,,,0.00,,2013-07-28 02:00:00,
2013-07-27 18:32:00,73.0,52.0,30.24,WSW,243,6.0,13.0,48,0.00,,,0.00,,2013-07-28 02:32:00,
2013-07-27 18:42:00,73.0,52.0,30.24,WSW,243,6.0,13.0,48,0.00,,,0.00,,2013-07-28 02:42:00,
2013-07-27 18:53:00,73.0,52.0,30.24,WSW,243,6.0,13.0,48,0.00,,,0.00,,2013-07-28 02:53:00,
2013-07-27 19:00:00,70.0,51.0,30.23,WSW,237,6.0,14.0,51,0.00,,,0.00,,2013-07-28 03:00:00,
2013-07-27 19:42:00,70.0,51.0,30.23,WSW,237,6.0,14.0,51,0.00,,,0.00,,2013-07-28 03:42:00,
2013-07-27 19:53:00,70.0,51.0,30.23,WSW,237,6.0,14.0,51,0.00,,,0.00,,2013-07-28 03:53:00,
2013-07-27 20:00:00,68.0,49.0,30.23,West,259,5.0,12.0,50,0.00,,,0.00,,2013-07-28 04:00:00,
2013-07-27 20:43:00,68.0,49.0,30.23,West,259,5.0,12.0,50,0.00,,,0.00,,2013-07-28 04:43:00,
2013-07-27 20:53:00,68.0,49.0,30.23,West,259,5.0,12.0,50,0.00,,,0.00,,2013-07-28 04:53:00,
2013-07-27 21:00:00,70.0,49.0,30.23,WSW,243,5.0,11.0,48,0.00,,,0.00,,2013-07-28 05:00:00,
2013-07-27 21:43:00,70.0,49.0,30.23,WSW,243,5.0,11.0,48,0.00,,,0.00,,2013-07-28 05:43:00,
2013-07-27 21:53:00,70.0,49.0,30.23,WSW,243,5.0,11.0,48,0.00,,,0.00,,2013-07-28 05:53:00,
2013-07-27 22:00:00,68.0,49.0,30.23,WSW,243,5.0,13.0,50,0.00,,,0.00,,2013-07-28 06:00:00,
2013-07-27 22:43:00,68.0,49.0,30.23,WSW,243,5.0,13.0,50,0.00,,,0.00,,2013-07-28 06:43:00,
2013-07-27 22:52:00,68.0,49.0,30.23,WSW,243,5.0,13.0,50,0.00,,,0.00,,2013-07-28 06:52:00,
2013-07-27 23:00:00,62.0,49.0,30.23,WSW,257,2.0,9.0,61,0.00,,,0.00,,2013-07-28 07:00:00,
2013-07-27 23:32:00,62.0,49.0,30.23,WSW,257,2.0,9.0,61,0.00,,,0.00,,2013-07-28 07:32:00,
2013-07-27 23:43:00,62.0,49.0,30.23,WSW,257,2.0,9.0,61,0.00,,,0.00,,2013-07-28 07:43:00,
2013-07-27 23:53:00,62.0,49.0,30.23,WSW,257,2.0,9.0,61,0.00,,,0.00,,2013-07-28 07:53:00,